Regional Weather Roundup
Issued by NWS

Home | Current Version | Previous Version | Graphics & Text | Print | Product List | Glossary On
Versions: 1 2 3 4 5 6 7 8 9 10 11 12 13 14 15 16 17 18 19 20 21 22 23 24 25 26 27 28 29 30 31 32 33 34 35 36 37 38 39 40 41 42 43 44 45 46 47 48 49 50
000
ASUS43 KLOT 211310
RWRIL

ILLINOIS REGIONAL WEATHER ROUNDUP
NATIONAL WEATHER SERVICE CHICAGO/ROMEOVILLE IL
800 AM CDT THU AUG 21 2014

NOTE: "FAIR" INDICATES FEW OR NO CLOUDS BELOW 12,000 FEET WITH NO
SIGNIFICANT WEATHER AND/OR OBSTRUCTIONS TO VISIBILITY.

* THESE STATIONS ARE NOT UNDER NWS QUALITY CONTROL. THEY ALSO MAY NOT
  REPORT WEATHER SUCH AS PRECIPITATION OR FOG.

ILZ001-002-007-009-015-016-024-211400-
NORTHWEST ILLINOIS

CITY           SKY/WX    TMP DP  RH WIND       PRES   REMARKS
MOLINE         CLOUDY    74  69  85 S5        29.91R
STERLING*      CLOUDY    72  70  94 E8        29.96R
SAVANNA*       TSTM      72  69  91 E8        29.94F
$$

ILZ003-004-008-010-011-017-018-211400-
NORTH CENTRAL ILLINOIS

CITY           SKY/WX    TMP DP  RH WIND       PRES   REMARKS
ROCKFORD       CLOUDY    70  67  90 SE8       29.95F THUNDER
FREEPORT*      CLOUDY    68  66  96 S8        29.96F
DE KALB*       TSTM      69  68  98 SE3       30.00S
PERU*          CLOUDY    72  70  93 NE3       29.97R
$$

ILZ005-006-012>014-019>023-211400-
NORTHEAST ILLINOIS

CITY           SKY/WX    TMP DP  RH WIND       PRES   REMARKS
CHICAGO-OHARE  TSTM      71  67  87 SW7       29.97R
CHICAGO-MIDWAY TSTM      73  70  90 W15G23    29.98R FOG
AURORA         TSTM      70  67  90 E9        29.99R FOG
LANSING*       TSTM      71  70  97 SW7       29.99R
JOLIET*        TSTM      70  68  93 CALM      30.00R
WAUKEGAN       LGT RAIN  70  67  90 VRB5      29.98R
DUPAGE AIRPORT TSTM      70  68  93 S8        29.99R FOG
KANKAKEE*      LGT RAIN  70  69  97 E3        30.00R
WHEELING       LGT RAIN  73  69  87 SW5       29.99R
MORRIS*        CLOUDY    71  71 100 CALM      29.99R FOG
ROMEOVILLE*    HVY RAIN  70  70 100 NW6       30.01R
NORTHERLY ISL    N/A     72  69  90 SW7         N/A
$$

LMZ740>746-211400-
SOUTHERN LAKE MICHIGAN

STATION/POSITION SKY/WX   TEMP    WIND        PRES    VSBY  WAVE
                          AIR SEA DIR/SP/G                  HT/PER
                          (F)     (DEG/KT/KT) (MB)    (MI)  (FT/S)
SOUTHERN BUOY              68 68   CALM  /  2 1014.2R         0
WAUKEGAN HARBOR            71     290/  7/  9   N/A
HARRISON CRIB              72     280/  6/  8   N/A
BURNHAM HARBOR             72     230/  2/  7   N/A
CALUMET HARBOR             71     220/  5/  7 1014.0R
BURNS HARBOR               71     200/  8/ 17   N/A
MICHIGAN CITY              71     170/  7/ 11   N/A
MICHIGAN CITY 6N           71 71  200/ 10/ 12   N/A           1/ 2
ST. JOSEPH                 71 71  170/  4/  6   N/A           1/ 3
$$

ILZ025>027-034>036-040-047-049-050-058-095>099-211400-
WEST-CENTRAL ILLINOIS

CITY           SKY/WX    TMP DP  RH WIND       PRES   REMARKS
QUINCY         SUNNY     76  68  76 SW9       29.95R
GALESBURG*     PTSUNNY   74  71  91 S7        29.94R
MACOMB*        MOSUNNY   73  70  89 SW5       29.95S
JACKSONVILLE*  SUNNY     77  71  81 SW7       29.98R
PITTSFIELD*    SUNNY     77  68  74 SW9       29.97R
$$

ILZ028>032-037-038-041>044-048-051>054-059>061-211400-
CENTRAL ILLINOIS

CITY           SKY/WX    TMP DP  RH WIND       PRES   REMARKS
PONTIAC        CLOUDY    73  72  94 S5        29.98R
DECATUR        MOSUNNY   76  72  87 SW7       29.99R
PEORIA         MOSUNNY   75  70  84 S5        29.95R
LACON*         PTSUNNY   73  70  92 SE3       29.94R
LINCOLN*       PTSUNNY   74  71  89 CALM      29.94R
SPRINGFIELD    SUNNY     76  71  85 S7        29.97R
TAYLORVILLE    SUNNY     73  70  88 SW6       29.99R
$$

ILZ033-039-045-046-055>057-062-063-211400-
EAST-CENTRAL ILLINOIS

CITY           SKY/WX    TMP DP  RH WIND       PRES   REMARKS
CHAMPAIGN      PTSUNNY   74  72  93 SW7       29.99R
DANVILLE*      LGT RAIN  72  70  95 SW5       29.96R
RANTOUL*       CLOUDY    74  70  87 SW5       29.99R
MATTOON        MOSUNNY   75  71  87 S8        30.00R
PARIS*         MOSUNNY   74  73  96 SW5       30.00R
$$

ILZ079-100>102-211400-
SOUTHWEST ILLINOIS

CITY           SKY/WX    TMP DP  RH WIND       PRES   REMARKS
ALTON          MOSUNNY   75  73  94 SW8       30.00R
BELLEVILLE     MOSUNNY   76  76  99 VRB2      30.00R
CAHOKIA*         N/A     77  72  84 CALM      30.00R
SPARTA*        MOSUNNY   77  73  86 S7        30.02R
$$

ILZ064>066-069>071-074>076-080>082-084>086-088>090-092>094-211400-
SOUTH-CENTRAL ILLINOIS

CITY           SKY/WX    TMP DP  RH WIND       PRES   REMARKS
CARBONDALE     MOSUNNY   78  73  84 SW7       30.03R HX  81
CAIRO*         SUNNY     80  74  83 SW8       30.06R HX  84
MARION         MOSUNNY   79  75  89 S7        30.04R HX  82
MT. VERNON     SUNNY     75  72  88 SW8       30.03R
CENTRALIA*     SUNNY     82  72  73 S6        30.02R HX  86
SALEM*         SUNNY     78  75  90 SW6       30.01R HX  80
$$

ILZ067-068-072-073-078-083-087-091-211400-
SOUTHEAST ILLINOIS

CITY           SKY/WX    TMP DP  RH WIND       PRES   REMARKS
LAWRENCEVILLE  MOSUNNY   76  72  87 SW9       30.02R
FLORA*         SUNNY     75  73  93 SW10      30.02R
FAIRFIELD*     SUNNY     77  75  94 S5        30.02R
HARRISBURG*    SUNNY     77  75  95 SW5       30.04S
ROBINSON*      MOSUNNY   77  74  90 SW6       30.01R
CARMI*         MOSUNNY   77  75  94 SW5       30.02R
$$

ABBREVIATIONS USED IN REMARKS
   TC - TEMPERATURE IN CELSIUS
  WCI - WIND CHILL INDEX
   HX - HEAT INDEX
  VSB - VISIBILITY
$$



USA.gov is the U.S. government's official web portal to all federal, state and local government web resources and services.